[TLELIST] Archives

 

[TLELIST] Current TLEs

January 22nd 2025 PDT

HST 1 20580U 90037B 25022.15491179 .00012566 00000-0 51700-3 0 9998 2 20580 28.4690 312.9466 0002431 279.4179 80.6140 15.22570831710647 ISS (ZARYA) 1 25544U 98067A 25022.21181189 .00028985 00000-0 50717-3 0 9997 2 25544 51.6377 310.1099 0002183 121.1655 238.9549 15.50378816492525 CXO 1 25867U 99040B 25023.99516665 .00000689 00000-0 00000-0 0 9992 2 25867 46.2215 137.3609 8627046 306.4572 0.5200 0.37805238 15402 ...Continue Reading

[TLELIST] Current TLEs

January 21st 2025 PDT

HST 1 20580U 90037B 25020.90950801 .00012147 00000-0 49998-3 0 9992 2 20580 28.4690 321.3529 0002410 265.9644 94.0674 15.22538611710455 ISS (ZARYA) 1 25544U 98067A 25021.20587325 .00028394 00000-0 49798-3 0 9998 2 25544 51.6398 315.0945 0002555 116.8191 25.1832 15.50323716492363 CXO 1 25867U 99040B 25018.70403827 .00000532 00000-0 00000-0 0 9997 2 25867 46.1607 137.5767 8637386 306.3857 0.1471 0.37807172 15388 ...Continue Reading

[TLELIST] Current TLEs

January 20th 2025 PDT

HST 1 20580U 90037B 25019.53297781 .00011302 00000-0 46508-3 0 9996 2 20580 28.4693 330.6431 0002465 247.7016 112.3316 15.22506130709988 ISS (ZARYA) 1 25544U 98067A 25020.36826645 .00024420 00000-0 43042-3 0 9997 2 25544 51.6400 319.2443 0002382 109.8230 34.3352 15.50269473492234 CXO 1 25867U 99040B 25018.70403827 .00000532 00000-0 00000-0 0 9997 2 25867 46.1607 137.5767 8637386 306.3857 0.1471 0.37807172 15388 ...Continue Reading

[TLELIST] Current TLEs

January 19th 2025 PDT

HST 1 20580U 90037B 25019.20522813 .00010651 00000-0 43795-3 0 9998 2 20580 28.4694 332.8551 0002474 244.1163 115.9176 15.22498342710193 ISS (ZARYA) 1 25544U 98067A 25019.33553669 .00022923 00000-0 40538-3 0 9998 2 25544 51.6396 324.3620 0002413 105.9549 30.8533 15.50215631492078 CXO 1 25867U 99040B 25018.70403827 .00000532 00000-0 00000-0 0 9997 2 25867 46.1607 137.5767 8637386 306.3857 0.1471 0.37807172 15388 ...Continue Reading

[TLELIST] Current TLEs

January 18th 2025 PDT

HST 1 20580U 90037B 25017.95976686 .00010626 00000-0 43727-3 0 9996 2 20580 28.4696 341.2601 0002501 229.0345 131.0033 15.22471271709742 ISS (ZARYA) 1 25544U 98067A 25018.03855561 .00019770 00000-0 35169-3 0 9990 2 25544 51.6388 330.7874 0002213 115.8195 338.1782 15.50146491491870 CXO 1 25867U 99040B 25018.70403827 .00000532 00000-0 00000-0 0 9997 2 25867 46.1607 137.5767 8637386 306.3857 0.1471 0.37807172 15388 ...Continue Reading

[TLELIST] Current TLEs

January 17th 2025 PDT

HST 1 20580U 90037B 25016.25541559 .00009000 00000-0 36948-3 0 9996 2 20580 28.4699 352.7613 0002544 209.7832 150.2617 15.22436487709480 ISS (ZARYA) 1 25544U 98067A 25017.27378259 .00018138 00000-0 32380-3 0 9998 2 25544 51.6397 334.5763 0002284 104.5784 38.7897 15.50109575491755 CXO 1 25867U 99040B 25016.05980701 .00000523 00000-0 00000+0 0 9993 2 25867 46.1059 137.7232 8643297 306.3123 0.1935 0.37803765 26529 ...Continue Reading

[TLELIST] Current TLEs

January 16th 2025 PDT

HST 1 20580U 90037B 25016.12431046 .00008059 00000-0 33004-3 0 9994 2 20580 28.4699 353.6460 0002559 208.2167 151.8288 15.22432264709728 ISS (ZARYA) 1 25544U 98067A 25016.10596162 .00016135 00000-0 28952-3 0 9999 2 25544 51.6395 340.3636 0002326 102.0881 0.1418 15.50058499491575 CXO 1 25867U 99040B 25016.05980701 .00000523 00000-0 00000+0 0 9993 2 25867 46.1059 137.7232 8643297 306.3123 0.1935 0.37803765 26529 ...Continue Reading

[TLELIST] Current TLEs

January 16th 2025 PDT

HST 1 20580U 90037B 25016.12431046 .00008059 00000-0 33004-3 0 9994 2 20580 28.4699 353.6460 0002559 208.2167 151.8288 15.22432264709728 ISS (ZARYA) 1 25544U 98067A 25016.10596162 .00016135 00000-0 28952-3 0 9999 2 25544 51.6395 340.3636 0002326 102.0881 0.1418 15.50058499491575 CXO 1 25867U 99040B 25016.05980701 .00000523 00000-0 00000+0 0 9993 2 25867 46.1059 137.7232 8643297 306.3123 0.1935 0.37803765 26529 ...Continue Reading

[TLELIST] Current TLEs

January 15th 2025 PDT

HST 1 20580U 90037B 25014.35436617 .00008194 00000-0 33598-3 0 9994 2 20580 28.4699 5.5893 0002630 188.0640 171.9912 15.22402280709195 ISS (ZARYA) 1 25544U 98067A 25015.13687281 .00015162 00000-0 27291-3 0 9998 2 25544 51.6394 345.1673 0002338 98.9982 351.9829 15.50022714491424 CXO 1 25867U 99040B 25016.05980701 .00000523 00000-0 00000+0 0 9993 2 25867 46.1059 137.7232 8643297 306.3123 0.1935 0.37803765 26529 ...Continue Reading

[TLELIST] Current TLEs

January 14th 2025 PDT

HST 1 20580U 90037B 25014.22325783 .00008182 00000-0 33552-3 0 9998 2 20580 28.4699 6.4737 0002642 186.5853 173.4706 15.22399978709438 ISS (ZARYA) 1 25544U 98067A 25014.24345699 .00014582 00000-0 26306-3 0 9994 2 25544 51.6406 349.5938 0002333 92.9849 49.4106 15.49993491491289 CXO 1 25867U 99040B 25016.05980701 .00000523 00000-0 00000+0 0 9993 2 25867 46.1059 137.7232 8643297 306.3123 0.1935 0.37803765 26529 ...Continue Reading
  • This mailing list is a public mailing list - anyone may join or leave, at any time.
  • This mailing list is announce-only.

International Space Station (ISS) / Hubble Space Telescope (HST) / Chandra X-Ray Observatory Orbital Data via EMAIL

Privacy Policy:

Private list